Regional Weather Roundup
Issued by NWS

Home | Current Version | Previous Version | Graphics & Text | Print | Product List | Glossary On
Versions: 1 2 3 4 5 6 7 8 9 10 11 12 13 14 15 16 17 18 19 20 21 22 23 24 25 26 27 28 29 30 31 32 33 34 35 36 37 38 39 40 41 42 43 44 45 46 47 48 49 50
000
ASUS45 KSLC 020010
RWRUT

UTAH REGIONAL WEATHER ROUNDUP
NATIONAL WEATHER SERVICE SALT LAKE CITY UT
600 PM MDT SUN MAY 01 2016

UTZ001>011-023>025-020100-

NORTHERN UTAH

CITY           SKY/WX    TMP DP  RH WIND       PRES   REMARKS
BRIGHAM CITY   PTSUNNY   58  20  23 E22G37    30.07R
HILL AFB       PTSUNNY   56  27  32 E21G31    30.05S
LOGAN          MOSUNNY   60  23  24 E21G31    30.09S
OGDEN          PTSUNNY   58  25  28 E21G28    30.04F
PROVO AIRPORT  MOSUNNY   61  30  31 NW9       30.01S
SALT LAKE CITY PTSUNNY   64  25  22 E9G22     30.01S
VERNAL         SUNNY     55  25  31 N15G26    30.09S
WENDOVER       SUNNY     57  28  33 E10       30.07S
HEBER CITY     MOSUNNY   55  21  26 CALM      30.05R

$$

UTZ012>022-026-027-020100-

SOUTHERN/CENTRAL UTAH

CITY           SKY/WX    TMP DP  RH WIND       PRES   REMARKS
BLANDING       CLOUDY    46  40  80 W3        30.15R
BRYCE CANYON   CLOUDY    41  36  82 SW5       30.08F
CEDAR CITY     CLOUDY    51  37  58 SE24      30.01R
HANKSVILLE     CLOUDY    61  30  31 N6        30.05R
MILFORD        MOSUNNY   62  29  28 N14G21    29.99R
MOAB/CYNLANDS  CLOUDY    60  31  33 CALM      30.01R
PRICE          CLOUDY    54  24  31 E3        30.07R
ST GEORGE      PTCLDY    70  41  35 N15       29.96R

$$

REGIONAL REPORTS     COLORADO/ARIZONA

CITY           SKY/WX    TMP DP  RH WIND       PRES   REMARKS
CRAIG, CO      CLOUDY    57  24  28 E8        30.04S
GRAND JUNCTION CLOUDY    58  30  34 SE5       30.02R
RIFLE          CLOUDY    56  31  38 S10       30.01R
MONTROSE       CLOUDY    50  32  50 NE12      30.09R
CORTEZ         CLOUDY    45  38  76 SW23G29   30.09R
PAGE, AZ       MOSUNNY   56  37  49 VRB3      30.03R
GRAND CANYON   CLOUDY    52  35  52 NE9       30.05R
KINGMAN        PTSUNNY   65  50  59 SE13      29.95R
FLAGSTAFF      RAIN      41  38  89 VRB3      30.06R FOG

$$

REGIONAL REPORTS    NEVADA/IDAHO/WYOMING

CITY           SKY/WX    TMP DP  RH WIND       PRES   REMARKS
LAS VEGAS, NV  PTSUNNY   74  33  22 VRB3      29.86F
ELY            CLOUDY    50  30  46 N16       30.07S
ELKO           MOSUNNY   59  31  34 NE12G21   30.05S
POCATELLO, ID  MOSUNNY   65  25  22 E8        30.07F
BURLEY         SUNNY     62  28  27 E8        30.05F
EVANSTON, WY   CLOUDY    44  21  40 E23G30    30.15S
ROCK SPRINGS   MOSUNNY   45  24  43 NE29G37   30.18S

$$



USA.gov is the U.S. government's official web portal to all federal, state and local government web resources and services.